Location: Observatorio del Centro Ecologico de Sonora
(29.0667°N, 110.9333°W)
Time: 02:49:43
(UTC-07:00)

ISS - Visible Passes

Search period start: 31 October 2014 00:00
Search period end: 10 November 2014 00:00
Orbit: 412 x 417 km, 51.6° (Epoch: 30 October)

Date Brightness Start Highest point End Pass type
(mag) Time Alt. Az. Time Alt. Az. Time Alt. Az.
01 Nov 0.2 18:08:33 10° WSW 18:09:46 12° SW 18:11:00 10° SSW visible
06 Nov -0.5 05:51:02 10° S 05:53:38 22° SE 05:56:14 10° ENE visible
07 Nov 0.2 05:03:43 10° SE 05:04:23 11° SE 05:05:03 10° ESE visible
08 Nov -3.3 05:47:56 10° SW 05:51:14 86° SE 05:54:33 10° NE visible
09 Nov -1.9 05:01:02 31° SSE 05:01:48 37° SE 05:04:53 10° ENE visible
